User: anonymous   Login
Location: Unspecified
(0.0000°N, 0.0000°E)
Time: 01:04:20
(UTC+00:00)
Language:

STARLINK-35881 - Orbit

View from above orbital plane
View from above orbital plane
View from above satellite
View from above satellite

Ground track
Ground track

The orbit is defined by the following mean orbital elements,

1 66830U          26145.40912242 +.00000000 +00000-0 +33262-3 0 00007
2 66830  70.0008 141.1875 0003922 268.9410  91.1300 14.98337443    03
Epoch (UTC): 25 May 2026 09:49:08
Eccentricity: 0.0003922
inclination: 70.0008°
perigee height: 569 km
apogee height: 575 km
right ascension of ascending node: 141.1875°
argument of perigee: 268.9410°
revolutions per day: 14.98337443
mean anomaly at epoch: 91.1300°

The dashed part of the orbit path shows where the satellite is in the earth's shadow,  

DLR